TimeCAT,TemperatureF,Dew PointF,Humidity,Sea Level PressureIn,VisibilityMPH,Wind Direction,Wind SpeedMPH,Gust SpeedMPH,PrecipitationIn,Events,Conditions,WindDirDegrees,DateUTC
12:00 AM,60.8,39.2,45,30.21,-9999.0,East,4.6,-,N/A,,Clear,90,2013-06-15 22:00:00
1:00 AM,60.8,41.0,48,30.21,-9999.0,East,4.6,-,N/A,,Clear,90,2013-06-15 23:00:00
2:00 AM,59.0,39.2,48,30.21,-9999.0,South,8.1,-,N/A,,Clear,170,2013-06-16 00:00:00
3:00 AM,59.0,37.4,45,30.21,-9999.0,SSE,10.4,-,N/A,,Clear,160,2013-06-16 01:00:00
4:00 AM,57.2,33.8,41,30.21,-9999.0,SSE,8.1,-,N/A,,Clear,160,2013-06-16 02:00:00
5:00 AM,55.4,28.4,36,30.21,-9999.0,SSE,9.2,-,N/A,,Clear,150,2013-06-16 03:00:00
6:00 AM,51.8,28.4,41,30.24,-9999.0,SSE,8.1,-,N/A,,Clear,150,2013-06-16 04:00:00
7:00 AM,50.0,28.4,43,30.24,-9999.0,SSE,9.2,-,N/A,,Clear,150,2013-06-16 05:00:00
8:00 AM,51,28,29,,6,SE,9.2,,,,Partly Cloudy,140,2013-06-16 06:00:00
8:00 AM,51.8,28.4,41,30.27,-9999.0,SE,9.2,-,N/A,,Clear,140,2013-06-16 06:00:00
9:00 AM,59.0,30.2,34,30.30,-9999.0,SE,11.5,-,N/A,,Clear,130,2013-06-16 07:00:00
10:00 AM,66.2,32.0,28,30.30,-9999.0,ESE,9.2,-,N/A,,Clear,120,2013-06-16 08:00:00
11:00 AM,71.6,33.8,25,30.30,-9999.0,East,12.7,-,N/A,,Clear,90,2013-06-16 09:00:00
12:00 PM,77.0,35.6,22,30.30,-9999.0,East,12.7,-,N/A,,Clear,90,2013-06-16 10:00:00
1:00 PM,78.8,35.6,21,30.27,-9999.0,East,12.7,-,N/A,,Clear,100,2013-06-16 11:00:00
2:00 PM,81,36,11,,6,East,10.4,,,,Partly Cloudy,90,2013-06-16 12:00:00
2:00 PM,80.6,37.4,21,30.24,-9999.0,East,10.4,-,N/A,,Clear,90,2013-06-16 12:00:00
3:00 PM,82.4,35.6,19,30.21,-9999.0,ESE,13.8,-,N/A,,Clear,120,2013-06-16 13:00:00
4:00 PM,82.4,37.4,20,30.21,-9999.0,SE,10.4,-,N/A,,Clear,130,2013-06-16 14:00:00
5:00 PM,80.6,37.4,21,30.21,-9999.0,ESE,6.9,-,N/A,,Clear,120,2013-06-16 15:00:00
6:00 PM,77.0,37.4,24,30.24,-9999.0,SE,6.9,-,N/A,,Clear,130,2013-06-16 16:00:00
7:00 PM,71.6,37.4,29,30.24,-9999.0,SE,8.1,-,N/A,,Clear,130,2013-06-16 17:00:00
8:00 PM,67,37,22,,6,SE,9.2,,,,,130,2013-06-16 18:00:00
8:00 PM,68.0,37.4,33,30.27,-9999.0,SE,9.2,-,N/A,,Clear,130,2013-06-16 18:00:00
9:00 PM,64.4,37.4,37,30.30,-9999.0,SE,10.4,-,N/A,,Clear,140,2013-06-16 19:00:00
10:00 PM,62.6,41.0,45,30.33,-9999.0,SE,10.4,-,N/A,,Clear,130,2013-06-16 20:00:00
11:00 PM,62.6,42.8,48,30.33,-9999.0,SE,9.2,-,N/A,,Clear,130,2013-06-16 21:00:00